TimeAKST,TemperatureF,Dew PointF,Humidity,Sea Level PressureIn,VisibilityMPH,Wind Direction,Wind SpeedMPH,Gust SpeedMPH,PrecipitationIn,Events,Conditions,WindDirDegrees,DateUTC
12:53 AM,21.9,3.0,44,29.83,10.0,North,5.8,-,N/A,,Partly Cloudy,10,2012-11-06 09:53:00
1:53 AM,21.9,3.0,44,29.85,10.0,NNE,6.9,-,N/A,,Clear,30,2012-11-06 10:53:00
2:53 AM,21.0,3.0,46,29.87,10.0,NNW,3.5,-,N/A,,Clear,340,2012-11-06 11:53:00
3:53 AM,19.0,3.0,50,29.88,10.0,NNW,4.6,-,N/A,,Clear,330,2012-11-06 12:53:00
4:53 AM,19.0,3.0,50,29.89,10.0,NNW,4.6,-,N/A,,Clear,340,2012-11-06 13:53:00
5:53 AM,19.0,3.0,50,29.91,10.0,NNW,4.6,-,N/A,,Clear,340,2012-11-06 14:53:00
6:53 AM,17.1,3.0,54,29.92,10.0,NNW,5.8,-,N/A,,Clear,340,2012-11-06 15:53:00
7:53 AM,15.1,3.9,61,29.94,10.0,NNW,3.5,-,N/A,,Clear,340,2012-11-06 16:53:00
8:53 AM,16.0,3.9,59,29.96,10.0,NNW,5.8,-,N/A,,Clear,330,2012-11-06 17:53:00
9:53 AM,17.1,3.0,54,29.98,10.0,NNW,4.6,-,N/A,,Partly Cloudy,340,2012-11-06 18:53:00
10:53 AM,21.9,3.9,46,30.00,10.0,North,6.9,-,N/A,,Partly Cloudy,360,2012-11-06 19:53:00
11:53 AM,24.1,3.9,42,30.01,10.0,NNE,10.4,-,N/A,,Partly Cloudy,30,2012-11-06 20:53:00
12:53 PM,26.1,3.9,39,30.02,10.0,NE,10.4,-,N/A,,Partly Cloudy,40,2012-11-06 21:53:00
1:53 PM,28.0,3.9,36,30.02,10.0,NNE,8.1,-,N/A,,Partly Cloudy,30,2012-11-06 22:53:00
2:53 PM,28.0,3.9,36,30.04,10.0,NNE,4.6,-,N/A,,Clear,30,2012-11-06 23:53:00
3:53 PM,27.0,5.0,39,30.04,10.0,NNE,9.2,-,N/A,,Clear,30,2012-11-07 00:53:00
4:53 PM,25.0,3.9,41,30.06,10.0,NNE,4.6,-,N/A,,Clear,20,2012-11-07 01:53:00
5:53 PM,24.1,5.0,44,30.07,10.0,Variable,6.9,-,N/A,,Clear,0,2012-11-07 02:53:00
6:53 PM,24.1,3.9,42,30.09,10.0,NNE,11.5,18.4,N/A,,Clear,20,2012-11-07 03:53:00
7:53 PM,23.0,3.9,44,30.11,10.0,NNE,10.4,-,N/A,,Clear,20,2012-11-07 04:53:00
8:53 PM,21.0,3.0,46,30.12,10.0,NNW,6.9,-,N/A,,Clear,330,2012-11-07 05:53:00
9:53 PM,19.9,1.0,44,30.15,10.0,North,4.6,-,N/A,,Clear,350,2012-11-07 06:53:00
10:53 PM,18.0,-0.9,44,30.16,10.0,NNW,5.8,-,N/A,,Clear,340,2012-11-07 07:53:00
11:53 PM,19.9,1.0,44,30.17,10.0,NNE,9.2,-,N/A,,Clear,20,2012-11-07 08:53:00